Location: Ar Ranvel
(48.3000°N, 4.8833°W)
Time: 22:11:52
(UTC+00:00)

Meteor 2-10 Rocket - Pass Details

Date: 26 October 2021
Orbit: 733 x 885 km, 81.2° (Epoch: 30 November)

Event Time Altitude Azimuth Distance (km) Brightness Sun altitude
Rises 18:20:56 0° 177° (S) 3,384 6.9 -12.3°
Reaches altitude 10° 18:23:25 10° 173° (S) 2,432 6.1 -12.7°
Maximum altitude 18:28:47 57° 96° (E) 951 3.6 -13.6°
Drops below altitude 10° 18:33:57 10° 19° (NNE) 2,349 5.8 -14.5°
Sets 18:36:19 0° 16° (NNE) 3,260 6.6 -14.9°
